When you browse on this site, cookies collect data to enhance your experience and personalize the content and advertising you see.
Visit our Privacy Policy to learn more. By continuing to use the site, you agree to this use of cookies and data.
  • In Slovakia
  • List of Countries
  • For 7 days
  • Water Temperature
  • Satellite Maps
  • Weather Map
  • Weather Widgets
  • user-avatar
    Login

    Hourly Weather Bryski

    Today, 18 February, Monday

    Time Temperature Precipitation Wind Pressure Humidity
    00:00 +5°C° 0 mm 0 mps 757 mmHg 91%
    01:00 +6°C° 0 mm 1 mps 757 mmHg 90%
    02:00 +6°C° 0 mm 1 mps 757 mmHg 90%
    03:00 +6°C° 0 mm 1 mps 757 mmHg 91%
    04:00 +5°C° 0 mm 1 mps 756 mmHg 91%
    05:00 +5°C° 0 mm 1 mps 757 mmHg 91%
    06:00 +5°C° 0 mm 1 mps 757 mmHg 92%
    07:00 +5°C° 0 mm 1 mps 757 mmHg 92%
    08:00 +6°C° 0 mm 1 mps 757 mmHg 89%
    09:00 +6°C° 0 mm 2 mps 757 mmHg 86%
    10:00 +7°C° 0 mm 2 mps 757 mmHg 83%
    11:00 +7°C° 0 mm 2 mps 756 mmHg 80%
    12:00 +8°C° 0 mm 2 mps 756 mmHg 76%
    13:00 +9°C° 0 mm 3 mps 756 mmHg 72%
    14:00 +9°C° 0 mm 3 mps 755 mmHg 74%
    15:00 +9°C° 0 mm 3 mps 755 mmHg 75%
    16:00 +9°C° 0 mm 3 mps 755 mmHg 76%
    17:00 +7°C° 0 mm 3 mps 754 mmHg 80%
    18:00 +5°C° 0 mm 3 mps 754 mmHg 84%
    19:00 +4°C° 0 mm 3 mps 754 mmHg 88%
    20:00 +4°C° 0 mm 3 mps 754 mmHg 88%
    21:00 +3°C° 0 mm 3 mps 753 mmHg 87%
    22:00 +3°C° 0 mm 3 mps 753 mmHg 87%
    23:00 +3°C° 0 mm 3 mps 753 mmHg 85%

    Tomorrow, 19 February, Tuesday

    Time Temperature Precipitation Wind Pressure Humidity
    00:00 +2°C° 0 mm 3 mps 752 mmHg 84%
    01:00 +3°C° 0 mm 2 mps 752 mmHg 83%
    02:00 +1°C° 0 mm 3 mps 752 mmHg 82%
    03:00 +1°C° 0 mm 3 mps 751 mmHg 82%
    04:00 +1°C° 0 mm 3 mps 751 mmHg 82%
    05:00 +1°C° 0 mm 3 mps 750 mmHg 84%
    06:00 0°C° 0 mm 3 mps 750 mmHg 85%
    07:00 0°C° 0 mm 3 mps 750 mmHg 87%
    08:00 +1°C° 0 mm 4 mps 749 mmHg 79%
    09:00 +3°C° 0 mm 4 mps 749 mmHg 72%
    10:00 +5°C° 0 mm 5 mps 749 mmHg 64%
    11:00 +6°C° 0 mm 5 mps 749 mmHg 61%
    12:00 +7°C° 0 mm 6 mps 749 mmHg 59%
    13:00 +8°C° 0 mm 6 mps 748 mmHg 56%
    14:00 +8°C° 0 mm 6 mps 748 mmHg 59%
    15:00 +8°C° 0 mm 5 mps 748 mmHg 62%
    16:00 +8°C° 0 mm 4 mps 748 mmHg 65%
    17:00 +7°C° 0.1 mm 5 mps 748 mmHg 71%
    18:00 +6°C° 0.1 mm 5 mps 748 mmHg 77%
    19:00 +6°C° 0.1 mm 5 mps 748 mmHg 83%
    20:00 +5°C° 0.2 mm 5 mps 748 mmHg 85%
    21:00 +5°C° 0.2 mm 4 mps 748 mmHg 88%
    22:00 +4°C° 0.2 mm 4 mps 748 mmHg 90%
    23:00 +4°C° 0 mm 4 mps 749 mmHg 89%

    Day after tomorrow, 20 February, Wednesday

    Time Temperature Precipitation Wind Pressure Humidity
    00:00 +3°C° 0 mm 5 mps 749 mmHg 88%
    01:00 +3°C° 0 mm 5 mps 749 mmHg 87%
    02:00 +2°C° 0 mm 5 mps 749 mmHg 88%
    03:00 +2°C° 0 mm 5 mps 749 mmHg 89%
    04:00 +1°C° 0 mm 5 mps 749 mmHg 89%
    05:00 +1°C° 0 mm 5 mps 749 mmHg 90%
    06:00 +1°C° 0 mm 5 mps 750 mmHg 91%
    07:00 +1°C° 0 mm 5 mps 750 mmHg 91%
    08:00 +1°C° 0 mm 6 mps 750 mmHg 87%
    09:00 +2°C° 0 mm 6 mps 751 mmHg 83%
    10:00 +2°C° 0 mm 7 mps 751 mmHg 78%
    11:00 +3°C° 0.1 mm 7 mps 752 mmHg 77%
    12:00 +3°C° 0.1 mm 7 mps 752 mmHg 75%
    13:00 +4°C° 0.1 mm 7 mps 752 mmHg 73%
    14:00 +4°C° 0.1 mm 7 mps 752 mmHg 75%
    15:00 +4°C° 0.1 mm 7 mps 752 mmHg 77%
    16:00 +4°C° 0.1 mm 6 mps 752 mmHg 78%
    17:00 +3°C° 0.1 mm 6 mps 753 mmHg 80%
    18:00 +3°C° 0.1 mm 5 mps 753 mmHg 82%
    19:00 +2°C° 0.1 mm 5 mps 753 mmHg 83%
    20:00 +2°C° 0 mm 5 mps 753 mmHg 85%
    21:00 +3°C° 0 mm 4 mps 754 mmHg 86%
    22:00 +3°C° 0 mm 4 mps 754 mmHg 88%
    23:00 +3°C° 0.1 mm 4 mps 754 mmHg 89%

    21 February, Thursday

    Time Temperature Precipitation Wind Pressure Humidity
    00:00 +3°C° 0.1 mm 5 mps 754 mmHg 89%
    01:00 +3°C° 0.1 mm 5 mps 754 mmHg 90%
    02:00 +3°C° 0.3 mm 5 mps 753 mmHg 91%
    03:00 +2°C° 0.3 mm 5 mps 753 mmHg 91%
    04:00 +2°C° 0.3 mm 5 mps 753 mmHg 92%
    05:00 +2°C° 0.2 mm 5 mps 753 mmHg 92%
    06:00 +2°C° 0.2 mm 5 mps 753 mmHg 92%
    07:00 +2°C° 0.2 mm 5 mps 752 mmHg 92%
    08:00 +2°C° 1.1 mm 5 mps 753 mmHg 92%
    09:00 +4°C° 1.1 mm 4 mps 753 mmHg 93%
    10:00 +4°C° 1.1 mm 4 mps 753 mmHg 93%
    11:00 +4°C° 0.4 mm 4 mps 753 mmHg 93%
    12:00 +4°C° 0.4 mm 4 mps 753 mmHg 92%
    13:00 +5°C° 0.4 mm 4 mps 753 mmHg 91%
    14:00 +5°C° 0 mm 4 mps 753 mmHg 92%
    15:00 +5°C° 0 mm 3 mps 753 mmHg 93%
    16:00 +5°C° 0 mm 3 mps 754 mmHg 93%
    17:00 +5°C° 0 mm 3 mps 754 mmHg 94%
    18:00 +5°C° 0 mm 3 mps 755 mmHg 95%
    19:00 +5°C° 0 mm 2 mps 756 mmHg 96%
    20:00 +4°C° 0 mm 3 mps 756 mmHg 95%
    21:00 +3°C° 0 mm 3 mps 757 mmHg 94%
    22:00 +2°C° 0 mm 3 mps 758 mmHg 94%
    23:00 +2°C° 0 mm 3 mps 759 mmHg 88%

    22 February, Friday

    Time Temperature Precipitation Wind Pressure Humidity
    00:00 +1°C° 0 mm 3 mps 759 mmHg 83%
    01:00 +1°C° 0 mm 3 mps 760 mmHg 77%
    02:00 0°C° 0 mm 3 mps 761 mmHg 74%
    03:00 0°C° 0 mm 3 mps 761 mmHg 71%
    04:00 -1°C° 0 mm 3 mps 762 mmHg 67%
    05:00 -1°C° 0 mm 3 mps 763 mmHg 66%
    06:00 -2°C° 0 mm 3 mps 764 mmHg 64%
    07:00 -2°C° 0 mm 3 mps 764 mmHg 63%
    08:00 -2°C° 0 mm 3 mps 765 mmHg 58%
    09:00 -1°C° 0 mm 3 mps 766 mmHg 52%
    10:00 0°C° 0 mm 3 mps 767 mmHg 47%
    11:00 +1°C° 0 mm 3 mps 767 mmHg 44%
    12:00 +1°C° 0 mm 3 mps 768 mmHg 40%
    13:00 +3°C° 0 mm 2 mps 768 mmHg 36%
    14:00 +3°C° 0 mm 2 mps 768 mmHg 37%
    15:00 +3°C° 0 mm 2 mps 769 mmHg 38%
    16:00 +4°C° 0 mm 1 mps 769 mmHg 39%
    17:00 +3°C° 0 mm 1 mps 769 mmHg 43%
    18:00 +1°C° 0 mm 2 mps 770 mmHg 47%
    19:00 -1°C° 0 mm 2 mps 770 mmHg 50%
    20:00 -1°C° 0 mm 2 mps 770 mmHg 51%
    21:00 -1°C° 0 mm 2 mps 771 mmHg 52%
    22:00 -1°C° 0 mm 2 mps 771 mmHg 53%
    23:00 -1°C° 0 mm 2 mps 771 mmHg 54%

    23 February, Saturday

    Time Temperature Precipitation Wind Pressure Humidity
    00:00 -1°C° 0 mm 3 mps 771 mmHg 54%
    01:00 -1°C° 0 mm 3 mps 771 mmHg 54%
    02:00 -1°C° 0 mm 3 mps 770 mmHg 55%
    03:00 -1°C° 0 mm 3 mps 770 mmHg 55%
    04:00 -1°C° 0 mm 3 mps 770 mmHg 56%
    05:00 -1°C° 0 mm 3 mps 770 mmHg 57%
    06:00 -1°C° 0 mm 3 mps 769 mmHg 57%
    07:00 -1°C° 0 mm 3 mps 769 mmHg 58%
    08:00 -1°C° 0 mm 4 mps 769 mmHg 57%
    09:00 0°C° 0 mm 4 mps 768 mmHg 55%
    10:00 +1°C° 0 mm 5 mps 768 mmHg 53%
    11:00 +3°C° 0 mm 5 mps 768 mmHg 57%
    12:00 +4°C° 0 mm 6 mps 767 mmHg 62%
    13:00 +5°C° 0 mm 6 mps 767 mmHg 66%
    14:00 +6°C° 0 mm 5 mps 766 mmHg 72%
    15:00 +6°C° 0 mm 5 mps 766 mmHg 77%
    16:00 +5°C° 0 mm 5 mps 765 mmHg 82%
    17:00 +5°C° 0 mm 4 mps 765 mmHg 86%
    18:00 +4°C° 0 mm 4 mps 765 mmHg 89%
    19:00 +4°C° 0 mm 4 mps 765 mmHg 92%
    20:00 +3°C° 0 mm 4 mps 765 mmHg 93%
    21:00 +3°C° 0 mm 4 mps 764 mmHg 94%
    22:00 +3°C° 0 mm 4 mps 764 mmHg 94%
    23:00 +3°C° 0 mm 4 mps 764 mmHg 94%
    Show more